Regional Weather Roundup
Issued by NWS

Current Version | Previous Version | Text Only | Print | Product List | Glossary On
Versions: 1 2 3 4 5 6 7 8 9 10 11 12 13 14 15 16 17 18 19 20 21 22 23 24 25 26 27 28 29 30 31 32 33 34 35 36 37 38 39 40 41 42 43 44 45 46 47 48 49 50
000
ASUS44 KOUN 230410
RWROK

WEATHER ROUNDUP FOR OKLAHOMA
NATIONAL WEATHER SERVICE NORMAN OK
1100 PM CDT MON SEP 22 2014

NOTE: "FAIR" INDICATES FEW OR NO CLOUDS BELOW 12,000 FEET WITH NO
      SIGNIFICANT WEATHER AND/OR OBSTRUCTIONS TO VISIBILITY.

OKZ001>007-009>012-014-015-017-230500-
NORTHWEST OKLAHOMA AND THE PANHANDLE

CITY           SKY/WX    TMP DP  RH WIND       PRES   REMARKS
GAGE           PTCLDY    66  48  52 S9        30.18S
ENID/WOODRING  CLEAR     63  50  63 SE9       30.18F
$$

OKZ016-021>023-033>039-044-045-230500-
SOUTHWEST OKLAHOMA

CITY           SKY/WX    TMP DP  RH WIND       PRES   REMARKS
LAWTON/REGL    PTCLDY    68  53  58 E6        30.18S
FREDERICK      MOCLDY    69  53  56 E9        30.15S
CLINTON        MOCLDY    69  47  45 SE6       30.20F
HOBART         PTCLDY    67  48  50 S7        30.19S
ALTUS AFB      PTCLDY    66  55  65 SE7       30.18S
$$

OKZ018>020-024>031-230500-
CENTRAL OKLAHOMA

CITY           SKY/WX    TMP DP  RH WIND       PRES   REMARKS
OKLAHOMA CITY  PTCLDY    64  50  60 E8        30.19F
OKC/WILEY POST CLEAR     66  49  54 E7        30.19F
OKC/TINKER AFB CLEAR     60  50  68 E6        30.19F
STILLWATER     MOCLDY    59  49  69 E7        30.20R
GUTHRIE        CLEAR     63  49  60 SE6       30.19F
$$

OKZ008-013-054>072-230500-
NORTHEAST OKLAHOMA

CITY           SKY/WX    TMP DP  RH WIND       PRES   REMARKS
TULSA          PTCLDY    62  54  74 E5        30.20F
TULSA/JONES    CLEAR     58  55  90 CALM      30.20F
PONCA CITY     PTCLDY    61  51  70 SE7       30.19F
BARTLESVILLE   PTCLDY    52  52 100 CALM      30.22F
MUSKOGEE       CLEAR     62  55  77 CALM      30.21S
$$

OKZ032-040>043-046>053-073>077-230500-
SOUTH CENTRAL/SOUTHEAST OKLAHOMA

CITY           SKY/WX    TMP DP  RH WIND       PRES   REMARKS
ARDMORE/DWNTWN PTCLDY    64  48  55 CALM      30.18F
MCALESTER      CLEAR     57  53  86 E3        30.21S
$$



USA.gov is the U.S. government's official web portal to all federal, state and local government web resources and services.